This is the latest recevied weather packets stored in our database for station/object VK7DSH-1. If no packets are shown the sender has not sent any weather packets the latest 10 day(s).
| Time | Temp. | Humidity | Pressure | Rain* | Wind** | Luminosity | Snow |
|---|---|---|---|---|---|---|---|
| 1788148467 | 68° F | 55% | 768.5 mmHg | 0 in | - | - | - |
| 1788148167 | 68° F | 53% | 768.4 mmHg | 0 in | - | - | - |
| 1788147867 | 68° F | 53% | 768.6 mmHg | 0 in | - | - | - |
| 1788147567 | 67° F | 55% | 768.7 mmHg | 0 in | - | - | - |
| 1788147267 | 67° F | 55% | 768.7 mmHg | 0 in | - | - | - |
| 1788146968 | 67° F | 55% | 768.7 mmHg | 0 in | - | - | - |
| 1788146667 | 67° F | 56% | 768.8 mmHg | 0 in | - | - | - |
| 1788146367 | 67° F | 56% | 768.7 mmHg | 0 in | - | - | - |
| 1788146067 | 67° F | 56% | 768.7 mmHg | 0 in | - | - | - |
| 1788145767 | 67° F | 56% | 769 mmHg | 0 in | - | - | - |
| 1788145467 | 67° F | 56% | 769.1 mmHg | 0 in | - | - | - |
| 1788145167 | 67° F | 56% | 769.1 mmHg | 0 in | - | - | - |
| 1788144867 | 66° F | 56% | 769 mmHg | 0 in | - | - | - |
| 1788144268 | 67° F | 57% | 769.3 mmHg | 0 in | - | - | - |
| 1788143967 | 66° F | 58% | 769.2 mmHg | 0 in | - | - | - |
| 1788143667 | 66° F | 57% | 769.3 mmHg | 0 in | - | - | - |
| 1788143367 | 67° F | 56% | 769.3 mmHg | 0 in | - | - | - |
| 1788142768 | 66° F | 58% | 769.5 mmHg | 0 in | - | - | - |
| 1788141567 | 67° F | 56% | 769.7 mmHg | 0 in | - | - | - |
| 1788141266 | 67° F | 54% | 769.7 mmHg | 0 in | - | - | - |
| 1788140967 | 67° F | 54% | 769.7 mmHg | 0 in | - | - | - |
| 1788140666 | 67° F | 57% | 769.9 mmHg | 0 in | - | - | - |
| 1788140366 | 67° F | 55% | 769.9 mmHg | 0 in | - | - | - |
| 1788139768 | 66° F | 58% | 769.9 mmHg | 0 in | - | - | - |
| 1788139467 | 65° F | 62% | 769.9 mmHg | 0 in | - | - | - |
* Rain latest hour (hover to see other rain measurements)
** Current wind speed in m/s (hover to see current wind gust speed)